Litchfield, IL

5:21 PM CST on January 23, 2017 (GMT -0600)
Litchfield

Weather History for K3LF - March, 2014

Change the Weather History Date:

Friday, March 7, 2014

  Actual Average (KALN) Record (KALN)
Temperature  
Mean Temperature 38 °F -  
Max Temperature 52 °F 45 °F 77 °F (2009)
Min Temperature 25 °F 29 °F 21 °F (1999)
Degree Days  
Heating Degree Days 26    
Moisture  
Dew Point 29 °F    
Average Humidity 71    
Maximum Humidity 92    
Minimum Humidity 46    
Precipitation  
Precipitation 0.00 in - - ()
Sea Level Pressure  
Sea Level Pressure 29.98 in    
Wind  
Wind Speed 6 mph (SSE)    
Max Wind Speed 15 mph    
Max Gust Speed -    
Visibility 9 miles    
Events      
Averages and records for this station are not official NWS values.
T = Trace of Precipitation, MM = Missing Value Source: NWS Daily Summary

Daily Weather History Graph

Daily Weather History Graph

Search for Another Location

Airport or City:

Trip Planner

Search our weather history database for the weather conditions in past years. The results will help you decide how hot, cold, wet, or windy it might be!

Date:

Astronomy

Mar. 07, 2014 Rise Set
Actual Time 6:22 AM CST 5:57 PM CST
Civil Twilight 5:55 AM CST 6:24 PM CST
Nautical Twilight 5:24 AM CST 6:55 PM CST
Astronomical Twilight 4:53 AM CST 7:26 PM CST
Moon 10:17 AM CST (3/7) 12:00 AM CST (3/7)
Length of Visible Light 12h 28m
Length of Day
11h 35m
Waxing Crescent, 42% of the Moon is Illuminated
Mar 7
Waxing Crescent
Mar 8
First Quarter
Mar 16
Full
Mar 23
Last Quarter
Mar 30
New

Hourly Weather History & Observations

Time (CST) Temp. Windchill Dew Point Humidity Pressure Visibility Wind Dir Wind Speed Gust Speed Precip Events Conditions
12:15 AM 27.9 °F - 23.0 °F 82% 30.06 in 10.0 mi Calm Calm - N/A   Clear
12:35 AM 28.2 °F - 23.4 °F 82% 30.06 in 10.0 mi Calm Calm - N/A   Clear
12:55 AM 26.4 °F - 23.0 °F 87% 30.06 in 7.0 mi Calm Calm - N/A   Clear
1:15 AM 27.0 °F - 23.4 °F 86% 30.07 in 7.0 mi Calm Calm - N/A   Clear
1:35 AM 27.3 °F - 23.4 °F 85% 30.07 in 7.0 mi Calm Calm - N/A   Clear
1:55 AM 25.5 °F - 22.3 °F 88% 30.06 in 7.0 mi Calm Calm - N/A   Clear
2:15 AM 25.2 °F 20.9 °F 22.5 °F 89% 30.05 in 7.0 mi SE 3.5 mph - N/A   Clear
2:35 AM 25.7 °F 20.1 °F 22.6 °F 88% 30.03 in 10.0 mi SE 4.6 mph - N/A   Clear
2:55 AM 27.0 °F 20.5 °F 22.6 °F 84% 30.03 in 10.0 mi SE 5.8 mph - N/A   Clear
3:10 AM 27.9 °F 20.6 °F 23.5 °F 84% 30.02 in 10.0 mi SE 6.9 mph - N/A   Clear
3:35 AM 27.9 °F 22.6 °F 23.0 °F 82% 30.02 in 10.0 mi SSE 4.6 mph - N/A   Clear
3:55 AM 27.3 °F 22.0 °F 22.8 °F 83% 30.03 in 10.0 mi SSE 4.6 mph - N/A   Clear
4:15 AM 27.0 °F 23.0 °F 23.2 °F 86% 30.03 in 10.0 mi South 3.5 mph - N/A   Clear
4:35 AM 27.1 °F 21.8 °F 24.1 °F 88% 30.02 in 7.0 mi South 4.6 mph - N/A   Clear
4:55 AM 26.4 °F 18.9 °F 23.4 °F 88% 30.02 in 7.0 mi South 6.9 mph - N/A   Clear
5:15 AM 27.0 °F 18.7 °F 23.5 °F 87% 30.01 in 7.0 mi South 8.1 mph - N/A   Clear
5:35 AM 29.1 °F 22.1 °F 24.6 °F 83% 30.01 in 7.0 mi SSE 6.9 mph - N/A   Clear
5:55 AM 28.4 °F 22.2 °F 24.3 °F 84% 30.01 in 7.0 mi South 5.8 mph - N/A   Clear
6:15 AM 27.5 °F 20.2 °F 24.3 °F 88% 30.01 in 7.0 mi South 6.9 mph - N/A   Clear
6:35 AM 26.2 °F 20.7 °F 23.9 °F 91% 30.01 in 4.0 mi South 4.6 mph - N/A   Clear
6:55 AM 27.3 °F 20.9 °F 25.2 °F 92% 30.01 in 4.0 mi South 5.8 mph - N/A   Clear
7:15 AM 29.5 °F 23.4 °F 26.6 °F 89% 30.01 in 5.0 mi South 5.8 mph - N/A   Clear
7:35 AM 32.0 °F 25.6 °F 28.0 °F 85% 30.02 in 5.0 mi South 6.9 mph - N/A   Clear
7:50 AM 33.1 °F 27.7 °F 29.1 °F 85% 30.02 in 5.0 mi South 5.8 mph - N/A   Clear
8:15 AM 35.2 °F 29.5 °F 30.2 °F 82% 30.02 in 5.0 mi South 6.9 mph - N/A   Haze
8:35 AM 36.5 °F 29.7 °F 30.9 °F 80% 30.02 in 7.0 mi South 9.2 mph - N/A   Clear
8:55 AM 37.6 °F 31.0 °F 30.6 °F 76% 30.02 in 7.0 mi South 9.2 mph - N/A   Clear
9:15 AM 39.2 °F 33.0 °F 31.1 °F 73% 30.01 in 7.0 mi South 9.2 mph - N/A   Clear
9:35 AM 39.9 °F 33.9 °F 31.6 °F 72% 30.02 in 7.0 mi SSW 9.2 mph - N/A   Clear
9:55 AM 41.7 °F 36.1 °F 32.2 °F 69% 30.02 in 10.0 mi South 9.2 mph - N/A   Clear
10:15 AM 42.8 °F 38.0 °F 32.0 °F 66% 30.02 in 10.0 mi South 8.1 mph - N/A   Clear
10:35 AM 43.7 °F 38.6 °F 32.0 °F 63% 30.02 in 7.0 mi South 9.2 mph - N/A   Clear
10:55 AM 44.6 °F 38.8 °F 32.4 °F 62% 30.02 in 10.0 mi South 11.5 mph - N/A   Clear
11:15 AM 45.9 °F 40.8 °F 32.5 °F 60% 30.01 in 10.0 mi South 10.4 mph - N/A   Clear
11:35 AM 47.5 °F - 32.9 °F 57% 30.00 in 10.0 mi South 8.1 mph - N/A   Clear
11:55 AM 48.6 °F - 32.9 °F 55% 30.00 in 10.0 mi South 10.4 mph - N/A   Clear
12:15 PM 49.1 °F - 32.9 °F 54% 29.99 in 10.0 mi South 9.2 mph - N/A   Clear
12:35 PM 50.5 °F - 32.2 °F 49% 29.98 in 10.0 mi South 9.2 mph - N/A   Clear
12:55 PM 50.5 °F - 32.2 °F 49% 29.97 in 10.0 mi South 10.4 mph - N/A   Clear
1:15 PM 50.9 °F - 32.9 °F 50% 29.96 in 10.0 mi South 10.4 mph - N/A   Clear
1:35 PM 51.8 °F - 32.4 °F 48% 29.95 in 10.0 mi South 11.5 mph - N/A   Clear
1:55 PM 51.6 °F - 32.2 °F 47% 29.94 in 10.0 mi South 12.7 mph - N/A   Clear
2:15 PM 50.5 °F - 32.5 °F 50% 29.94 in 10.0 mi South 11.5 mph - N/A   Clear
2:35 PM 52.9 °F - 32.4 °F 46% 29.93 in 10.0 mi South 13.8 mph - N/A   Clear
2:55 PM 52.7 °F - 32.4 °F 46% 29.92 in 10.0 mi South 13.8 mph - N/A   Clear
3:15 PM 52.5 °F - 32.4 °F 46% 29.92 in 10.0 mi South 15.0 mph - N/A   Clear
3:35 PM 50.4 °F - 32.5 °F 50% 29.92 in 10.0 mi South 13.8 mph - N/A   Clear
3:55 PM 52.2 °F - 33.8 °F 50% 29.91 in 10.0 mi South 12.7 mph - N/A   Clear
4:15 PM 51.1 °F - 33.6 °F 51% 29.91 in 10.0 mi SSE 12.7 mph - N/A   Clear
4:35 PM 50.4 °F - 33.6 °F 53% 29.91 in 10.0 mi SSE 9.2 mph - N/A   Clear
4:55 PM 48.7 °F - 33.8 °F 56% 29.90 in 10.0 mi SSE 9.2 mph - N/A   Clear
5:15 PM 48.2 °F - 33.4 °F 57% 29.91 in 10.0 mi SSE 9.2 mph - N/A   Clear
5:35 PM 44.4 °F 40.0 °F 32.7 °F 64% 29.91 in 10.0 mi SSE 8.1 mph - N/A   Clear
5:55 PM 43.0 °F 38.2 °F 31.6 °F 64% 29.91 in 10.0 mi SSE 8.1 mph - N/A   Clear
6:15 PM 42.4 °F 38.1 °F 30.0 °F 61% 29.92 in 10.0 mi SSE 6.9 mph - N/A   Clear
6:35 PM 40.5 °F 35.8 °F 29.7 °F 65% 29.93 in 10.0 mi South 6.9 mph - N/A   Clear
6:55 PM 37.4 °F 32.1 °F 30.4 °F 76% 29.94 in 10.0 mi South 6.9 mph - N/A   Clear
7:15 PM 35.6 °F 30.7 °F 30.2 °F 81% 29.95 in 10.0 mi South 5.8 mph - N/A   Clear
7:35 PM 40.5 °F 36.5 °F 30.2 °F 67% 29.95 in 10.0 mi SSE 5.8 mph - N/A   Clear
7:55 PM 39.0 °F 34.0 °F 29.8 °F 70% 29.95 in 10.0 mi SSE 6.9 mph - N/A   Clear
8:15 PM 41.5 °F 37.8 °F 29.8 °F 63% 29.95 in 10.0 mi SSE 5.8 mph - N/A   Clear
8:35 PM 41.0 °F 36.4 °F 29.8 °F 64% 29.95 in 10.0 mi SSE 6.9 mph - N/A   Clear
8:55 PM 40.5 °F 35.8 °F 30.0 °F 66% 29.95 in 10.0 mi SE 6.9 mph - N/A   Clear
9:15 PM 41.0 °F 36.4 °F 29.8 °F 64% 29.96 in 10.0 mi SSE 6.9 mph - N/A   Clear
9:35 PM 40.3 °F 34.9 °F 30.2 °F 67% 29.95 in 10.0 mi South 8.1 mph - N/A   Clear
9:55 PM 38.5 °F 33.4 °F 30.4 °F 73% 29.96 in 10.0 mi SSE 6.9 mph - N/A   Clear
10:15 PM 39.2 °F 34.2 °F 30.7 °F 72% 29.96 in 10.0 mi SSE 6.9 mph - N/A   Clear
10:35 PM 38.8 °F 33.2 °F 31.1 °F 74% 29.96 in 10.0 mi SSE 8.1 mph - N/A   Clear
10:55 PM 37.9 °F 33.5 °F 31.5 °F 77% 29.95 in 10.0 mi SSE 5.8 mph - N/A   Clear
11:15 PM 37.4 °F 31.4 °F 31.1 °F 78% 29.96 in 10.0 mi SSE 8.1 mph - N/A   Clear
11:35 PM 35.6 °F 29.2 °F 31.1 °F 84% 29.96 in 10.0 mi South 8.1 mph - N/A   Clear
11:55 PM 34.9 °F 28.3 °F 31.3 °F 87% 29.96 in 10.0 mi South 8.1 mph - N/A   Clear